Regional Weather Roundup
Issued by NWS New Orleans/Baton Rouge, LA

Home | Current Version | Previous Version | Graphics & Text | Print | Product List | Glossary On
Versions: 1 2 3 4 5 6 7 8 9 10 11 12 13 14 15 16 17 18 19 20 21 22 23 24 25 26 27 28 29 30 31 32 33 34 35 36 37 38 39 40 41 42 43 44 45 46 47 48 49 50
057
ASUS44 KLIX 172210
RWRLIX
NEW ORLEANS REGIONAL WEATHER ROUNDUP
NATIONAL WEATHER SERVICE NEW ORLEANS LA
400 PM CST WED DEC 17 2014

NOTE: "FAIR" INDICATES FEW OR NO CLOUDS BELOW 12,000 FEET WITH NO
      SIGNIFICANT WEATHER AND/OR OBSTRUCTIONS TO VISIBILITY.
      SKY/WX - SKY CONDITION AND SIGNIFICANT WEATHER.
      TMP - AIR TEMPERATURE.     DP    - DEWPOINT TEMPERATURE.
      RH  - RELATIVE HUMIDITY.   PRES  - PRESSURE.
      HI  - HEAT INDEX.          WCI   - WIND CHILL INDEX.

*  THESE STATIONS ARE NOT NWS OR FAA STATIONS AND ARE NOT UNDER
   NWS QUALITY CONTROL.

LAZ038-040-048-061>063-065>067-069-172300-
SOUTHEAST LOUISIANA

CITY           SKY/WX    TMP DP  RH WIND       PRES   REMARKS
N.O. AUDUBON     N/A     58  44  60 MISG        N/A
N.O. INTL ARPT PTSUNNY   57  40  52 NE6       30.19F
N.O. LAKEFRONT MOSUNNY   58  39  49 NW5       30.20S
N.O. DOWNTOWN*   N/A     57  37  47 N5        30.19F
SLIDELL        MOSUNNY   59  42  53 CALM      30.19S
BATON ROUGE    SUNNY     60  39  45 E6        30.18F
BOOTHVILLE     MOSUNNY   58  48  69 NE7       30.19F
BELLE CHASSE   PTSUNNY   59  42  53 E6        30.18F
BOGALUSA*        N/A     60  41  49 N3        30.21S
GALLIANO*      PTCLDY    61  46  57 MISG      30.18F
NEW ROADS*       N/A     59  40  48 SE5       30.18S
GONZALES*        N/A     60  40  47 CALM      30.18S
HAMMOND*       NOT AVBL
HOUMA*         MOSUNNY   61  43  51 NE9       30.17F
PORT FOURCHON* CLEAR     59  46  63 NE8       30.21S

$$

MSZ070-080>082-172300-
SOUTHERN MISSISSIPPI

CITY           SKY/WX    TMP DP  RH WIND       PRES   REMARKS
MCCOMB         SUNNY     58  39  49 NE6       30.18F
GULFPORT       MOCLDY    57  41  55 S5        30.19F
BILOXI         PTCLDY    59  41  50 W2        30.19F
PASCAGOULA     PTCLDY    60  39  45 NE6       30.19S
STENNIS ARPT*  SUNNY     59  36  41 VRB5      30.19F

$$

COASTAL OBSERVATIONS
LAKE AND NEARSHORE STATIONS

STATION/POSITION TIME  TEMP    WIND        PRES    WAVE
                       AIR SEA DIR/SP/G            HT/PER
                 (UTC) (F)     (DEG/KT/KT) (MB)    (FT/S)
PASCAGOULA       2200   57     230/  4/  7 1021.8
WAVELAND YACHT   2200   55     170/  5/  5 1021.7
GRAND ISLE       2200   59 62   50/  6/  8 1022.3
SOUTHWEST PASS   2200   63                 1022.3
NEW CANAL        2200   55 58   10/  4/  5 1023.0
SHELL BEACH      2200   55 60   30/  2/  3 1022.3

OFFSHORE STATIONS

STATION/POSITION TIME  TEMP    WIND        PRES    WAVE
                       AIR SEA DIR/SP/G            HT/PER
                 (UTC) (F)     (DEG/KT/KT) (MB)    (FT/S)
64 S DAUPHIN ISL 2200   61 74   20/ 10/ 12 1021.6    2/ 5

$$




USA.gov is the U.S. government's official web portal to all federal, state and local government web resources and services.